UAL1834 KTPA-KIAH

Flight info

Callsign UAL1834
Flight time 2h 6m
Altitude 36000
Route DORMR3 FROOT BUNNZ Y290 LEV NNCEE2
Aircraft B738/M-SDE2E3FGHIRWXY/LB1

Departure

Time 2026-05-04 04:23
Airport Tampa International Airport (KTPA)

Arrival

Time 2026-05-04 06:29
Airport George Bush Intercontinental Airport (KIAH)
Time Latitude Longitude Altitude Speed Heading
2026-05-04 03:49 27.97451 -82.53242 42 ft 0 kts 20°
2026-05-04 04:12 27.97449 -82.53243 42 ft 3 kts 20°
2026-05-04 04:12 27.97424 -82.53253 42 ft 4 kts 20°
2026-05-04 04:12 27.97404 -82.53261 41 ft 4 kts 22°
2026-05-04 04:13 27.97386 -82.53275 40 ft 4 kts 84°
2026-05-04 04:13 27.97386 -82.53302 40 ft 3 kts 91°
2026-05-04 04:13 27.97386 -82.53304 40 ft 1 kts 91°
2026-05-04 04:16 27.97386 -82.53293 42 ft 7 kts 91°
2026-05-04 04:16 27.97384 -82.53214 42 ft 11 kts 91°
2026-05-04 04:17 27.97382 -82.53128 42 ft 11 kts 93°
2026-05-04 04:17 27.97336 -82.53069 41 ft 10 kts 149°
2026-05-04 04:17 27.97290 -82.53008 39 ft 10 kts 139°
2026-05-04 04:17 27.97221 -82.52997 40 ft 10 kts 184°
2026-05-04 04:18 27.97152 -82.53003 39 ft 11 kts 185°
2026-05-04 04:18 27.97070 -82.53010 35 ft 13 kts 178°
2026-05-04 04:18 27.96983 -82.53007 38 ft 12 kts 179°
2026-05-04 04:18 27.96898 -82.53006 40 ft 12 kts 179°
2026-05-04 04:19 27.96815 -82.53008 40 ft 12 kts 184°
2026-05-04 04:19 27.96735 -82.53014 40 ft 11 kts 183°
2026-05-04 04:19 27.96657 -82.53019 38 ft 11 kts 183°
2026-05-04 04:19 27.96582 -82.53020 40 ft 11 kts 181°
2026-05-04 04:20 27.96508 -82.53021 40 ft 10 kts 181°
2026-05-04 04:20 27.96463 -82.53010 40 ft 0 kts 143°
2026-05-04 04:21 27.96455 -82.52997 40 ft 7 kts 123°
2026-05-04 04:21 27.96445 -82.52925 37 ft 11 kts 82°
2026-05-04 04:21 27.96512 -82.52895 36 ft 12 kts
2026-05-04 04:22 27.96677 -82.52890 37 ft 41 kts
2026-05-04 04:22 27.97145 -82.52876 37 ft 99 kts
2026-05-04 04:22 27.98025 -82.52848 38 ft 151 kts
2026-05-04 04:22 27.99152 -82.52836 378 ft 166 kts
2026-05-04 04:23 28.00316 -82.52889 1031 ft 169 kts
2026-05-04 04:23 28.01530 -82.52884 1472 ft 187 kts
2026-05-04 04:23 28.02922 -82.52960 1700 ft 215 kts 348°
2026-05-04 04:23 28.04205 -82.53980 1830 ft 244 kts 305°
2026-05-04 04:24 28.04644 -82.55850 2214 ft 254 kts 264°
2026-05-04 04:24 28.04073 -82.57761 2571 ft 266 kts 236°
2026-05-04 04:24 28.02912 -82.59433 3162 ft 271 kts 226°
2026-05-04 04:24 28.01646 -82.60976 4081 ft 265 kts 226°
2026-05-04 04:25 28.00378 -82.62490 4848 ft 267 kts 226°
2026-05-04 04:25 27.99100 -82.64028 5517 ft 268 kts 227°
2026-05-04 04:25 27.97833 -82.65573 5910 ft 269 kts 228°
2026-05-04 04:25 27.96592 -82.67102 5966 ft 266 kts 228°
2026-05-04 04:26 27.95318 -82.68686 6166 ft 271 kts 229°
2026-05-04 04:26 27.94064 -82.70254 6876 ft 273 kts 229°
2026-05-04 04:26 27.92789 -82.71854 7619 ft 274 kts 230°
2026-05-04 04:26 27.91518 -82.73451 8575 ft 273 kts 230°
2026-05-04 04:27 27.90244 -82.75055 9496 ft 275 kts 231°
2026-05-04 04:27 27.88964 -82.76669 10351 ft 278 kts 231°
2026-05-04 04:27 27.87623 -82.78365 10672 ft 302 kts 231°
2026-05-04 04:27 27.86171 -82.80204 10865 ft 326 kts 231°
2026-05-04 04:28 27.84605 -82.82184 11033 ft 349 kts 231°
2026-05-04 04:28 27.82938 -82.84286 11190 ft 369 kts 231°
2026-05-04 04:28 27.81195 -82.86479 11618 ft 378 kts 231°
2026-05-04 04:28 27.79430 -82.88697 12252 ft 381 kts 230°
2026-05-04 04:29 27.77659 -82.90921 12983 ft 381 kts 230°
2026-05-04 04:29 27.75905 -82.93125 13664 ft 383 kts 230°
2026-05-04 04:29 27.74119 -82.95370 14278 ft 385 kts 230°
2026-05-04 04:29 27.72328 -82.97622 14883 ft 386 kts 230°
2026-05-04 04:30 27.70536 -82.99874 15520 ft 385 kts 230°
2026-05-04 04:30 27.68770 -83.02148 16114 ft 385 kts 234°
2026-05-04 04:30 27.67387 -83.04724 16640 ft 385 kts 245°
2026-05-04 04:30 27.66417 -83.07543 17190 ft 386 kts 252°
2026-05-04 04:31 27.65877 -83.10519 17660 ft 389 kts 262°
2026-05-04 04:31 27.65624 -83.13564 18148 ft 391 kts 263°
2026-05-04 04:31 27.65374 -83.16626 18588 ft 392 kts 263°
2026-05-04 04:31 27.65111 -83.19691 19028 ft 393 kts 263°
2026-05-04 04:32 27.64834 -83.22756 19404 ft 394 kts 262°
2026-05-04 04:32 27.64548 -83.25842 19764 ft 397 kts 262°
2026-05-04 04:32 27.64258 -83.28941 20136 ft 398 kts 263°
2026-05-04 04:32 27.63966 -83.32055 20515 ft 400 kts 263°
2026-05-04 04:33 27.63672 -83.35181 20883 ft 401 kts 263°
2026-05-04 04:33 27.63377 -83.38322 21244 ft 403 kts 263°
2026-05-04 04:33 27.63080 -83.41474 21593 ft 405 kts 263°
2026-05-04 04:33 27.62782 -83.44632 21936 ft 406 kts 263°
2026-05-04 04:34 27.62486 -83.47765 22275 ft 408 kts 263°
2026-05-04 04:34 27.62184 -83.50956 22612 ft 410 kts 263°
2026-05-04 04:34 27.61879 -83.54158 22953 ft 411 kts 263°
2026-05-04 04:34 27.61570 -83.57405 23341 ft 412 kts 263°
2026-05-04 04:35 27.61267 -83.60576 23647 ft 413 kts 264°
2026-05-04 04:35 27.60958 -83.63809 23897 ft 415 kts 264°
2026-05-04 04:35 27.60648 -83.67048 24178 ft 416 kts 264°
2026-05-04 04:35 27.60335 -83.70297 24470 ft 416 kts 264°
2026-05-04 04:36 27.60023 -83.73538 24742 ft 416 kts 264°
2026-05-04 04:36 27.59708 -83.76794 25008 ft 417 kts 264°
2026-05-04 04:36 27.59393 -83.80046 25258 ft 418 kts 264°
2026-05-04 04:36 27.59075 -83.83314 25505 ft 419 kts 264°
2026-05-04 04:37 27.58121 -83.93092 26230 ft 419 kts 264°
2026-05-04 04:37 27.57801 -83.96344 26549 ft 417 kts 265°
2026-05-04 04:38 27.57483 -83.99581 26839 ft 415 kts 265°
2026-05-04 04:38 27.57166 -84.02807 27121 ft 414 kts 265°
2026-05-04 04:38 27.56848 -84.06027 27425 ft 412 kts 265°
2026-05-04 04:38 27.56531 -84.09230 27759 ft 410 kts 265°
2026-05-04 04:39 27.56215 -84.12414 28089 ft 408 kts 265°
2026-05-04 04:39 27.56050 -84.14514 28297 ft 406 kts 268°
2026-05-04 04:39 27.56081 -84.17688 28627 ft 404 kts 274°
2026-05-04 04:39 27.56450 -84.20816 28991 ft 402 kts 279°
2026-05-04 04:40 27.56979 -84.23909 29364 ft 400 kts 279°
2026-05-04 04:40 27.57494 -84.26979 29727 ft 398 kts 279°
2026-05-04 04:40 27.58000 -84.30039 30109 ft 395 kts 279°
2026-05-04 04:40 27.58495 -84.33069 30528 ft 391 kts 279°
2026-05-04 04:41 27.58985 -84.36080 30807 ft 391 kts 279°
2026-05-04 04:41 27.59474 -84.39100 31019 ft 391 kts 279°
2026-05-04 04:41 27.59962 -84.42121 31257 ft 391 kts 279°
2026-05-04 04:41 27.60448 -84.45136 31547 ft 390 kts 279°
2026-05-04 04:42 27.60926 -84.48104 31831 ft 389 kts 279°
2026-05-04 04:42 27.61409 -84.51107 32086 ft 388 kts 279°
2026-05-04 04:42 27.61891 -84.54108 32335 ft 388 kts 279°
2026-05-04 04:42 27.62371 -84.57098 32603 ft 387 kts 279°
2026-05-04 04:43 27.62849 -84.60085 32875 ft 386 kts 279°
2026-05-04 04:43 27.63326 -84.63068 33129 ft 386 kts 279°
2026-05-04 04:43 27.63802 -84.66048 33381 ft 386 kts 279°
2026-05-04 04:43 27.64276 -84.69020 33659 ft 385 kts 279°
2026-05-04 04:44 27.64748 -84.71985 33935 ft 384 kts 279°
2026-05-04 04:44 27.65219 -84.74942 34179 ft 383 kts 279°
2026-05-04 04:44 27.65688 -84.77895 34392 ft 382 kts 279°
2026-05-04 04:44 27.66149 -84.80802 34622 ft 381 kts 279°
2026-05-04 04:45 27.66614 -84.83739 34855 ft 380 kts 279°
2026-05-04 04:45 27.67078 -84.86673 35072 ft 379 kts 279°
2026-05-04 04:45 27.67540 -84.89595 35291 ft 378 kts 278°
2026-05-04 04:47 27.70284 -85.07060 36099 ft 377 kts 279°
2026-05-04 04:47 27.71191 -85.12860 36114 ft 374 kts 279°
2026-05-04 04:48 27.72084 -85.18592 36116 ft 373 kts 279°
2026-05-04 04:49 27.74356 -85.32977 36119 ft 372 kts 280°
2026-05-04 04:49 27.75457 -85.38700 36119 ft 373 kts 281°
2026-05-04 04:50 27.76576 -85.44423 36114 ft 373 kts 281°
2026-05-04 04:50 27.77679 -85.50157 36119 ft 374 kts 281°
2026-05-04 04:51 27.78765 -85.55862 36129 ft 374 kts 281°
2026-05-04 04:51 27.79855 -85.61617 36124 ft 374 kts 281°
2026-05-04 04:52 27.80941 -85.67376 36123 ft 375 kts 281°
2026-05-04 04:52 27.82026 -85.73141 36125 ft 375 kts 281°
2026-05-04 04:53 27.83108 -85.78903 36126 ft 375 kts 281°
2026-05-04 04:53 27.84180 -85.84627 36135 ft 375 kts 281°
2026-05-04 04:54 27.85257 -85.90393 36126 ft 375 kts 281°
2026-05-04 04:54 27.86333 -85.96165 36126 ft 375 kts 281°
2026-05-04 04:55 27.87407 -86.01939 36133 ft 375 kts 281°
2026-05-04 04:55 27.88478 -86.07716 36130 ft 375 kts 281°
2026-05-04 04:56 27.89546 -86.13488 36126 ft 375 kts 281°
2026-05-04 04:56 27.90614 -86.19273 36116 ft 375 kts 282°
2026-05-04 04:57 27.91672 -86.25020 36125 ft 376 kts 282°
2026-05-04 04:57 27.92738 -86.30822 36137 ft 376 kts 282°
2026-05-04 04:58 27.93801 -86.36626 36136 ft 377 kts 282°
2026-05-04 04:58 27.94863 -86.42435 36137 ft 377 kts 282°
2026-05-04 04:59 27.95916 -86.48211 36136 ft 377 kts 282°
2026-05-04 04:59 27.96974 -86.54030 36141 ft 378 kts 282°
2026-05-04 05:00 27.98029 -86.59850 36141 ft 378 kts 282°
2026-05-04 05:01 27.99615 -86.68613 36144 ft 378 kts 282°
2026-05-04 05:01 28.00667 -86.74450 36141 ft 379 kts 282°
2026-05-04 05:02 28.02113 -86.80181 36149 ft 379 kts 288°
2026-05-04 05:02 28.03804 -86.85794 36168 ft 379 kts 288°
2026-05-04 05:03 28.05503 -86.91456 36146 ft 379 kts 288°
2026-05-04 05:04 28.08837 -87.02675 36139 ft 368 kts 288°
2026-05-04 05:04 28.10443 -87.08104 36146 ft 364 kts 288°
2026-05-04 05:06 28.16824 -87.29768 36153 ft 362 kts 288°
2026-05-04 05:07 28.18416 -87.35195 36144 ft 364 kts 288°
2026-05-04 05:07 28.20013 -87.40647 36144 ft 365 kts 288°
2026-05-04 05:09 28.27237 -87.65428 36147 ft 370 kts 288°
2026-05-04 05:10 28.28845 -87.70969 36136 ft 370 kts 288°
2026-05-04 05:10 28.30439 -87.76473 36146 ft 369 kts 288°
2026-05-04 05:11 28.32040 -87.82010 36148 ft 368 kts 288°
2026-05-04 05:11 28.33634 -87.87531 36151 ft 368 kts 288°
2026-05-04 05:12 28.35225 -87.93050 36150 ft 367 kts 288°
2026-05-04 05:12 28.36814 -87.98572 36158 ft 368 kts 289°
2026-05-04 05:13 28.38445 -88.04075 36148 ft 367 kts 292°
2026-05-04 05:13 28.40493 -88.09346 36133 ft 367 kts 294°
2026-05-04 05:14 28.42596 -88.14635 36149 ft 366 kts 294°
2026-05-04 05:14 28.44684 -88.19921 36153 ft 366 kts 294°
2026-05-04 05:15 28.46768 -88.25225 36156 ft 367 kts 294°
2026-05-04 05:15 28.48828 -88.30487 36154 ft 367 kts 294°
2026-05-04 05:16 28.50905 -88.35804 36158 ft 367 kts 294°
2026-05-04 05:16 28.52976 -88.41114 36159 ft 367 kts 294°
2026-05-04 05:17 28.55049 -88.46435 36153 ft 368 kts 294°
2026-05-04 05:17 28.57118 -88.51755 36146 ft 368 kts 294°
2026-05-04 05:18 28.59172 -88.57042 36153 ft 368 kts 294°
2026-05-04 05:18 28.61238 -88.62369 36152 ft 368 kts 294°
2026-05-04 05:19 28.63305 -88.67705 36155 ft 368 kts 294°
2026-05-04 05:19 28.65373 -88.73052 36155 ft 369 kts 293°
2026-05-04 05:20 28.67440 -88.78405 36168 ft 369 kts 294°
2026-05-04 05:20 28.69509 -88.83768 36152 ft 370 kts 294°
2026-05-04 05:21 28.71563 -88.89101 36150 ft 370 kts 294°
2026-05-04 05:21 28.73625 -88.94462 36156 ft 369 kts 294°
2026-05-04 05:22 28.75688 -88.99833 36156 ft 369 kts 294°
2026-05-04 05:22 28.77748 -89.05203 36159 ft 369 kts 294°
2026-05-04 05:23 28.79801 -89.10565 36162 ft 369 kts 294°
2026-05-04 05:23 28.81853 -89.15930 36157 ft 369 kts 294°
2026-05-04 05:24 28.83901 -89.21294 36157 ft 369 kts 294°
2026-05-04 05:24 28.85936 -89.26629 36149 ft 368 kts 294°
2026-05-04 05:25 28.87979 -89.31993 36157 ft 368 kts 294°
2026-05-04 05:25 28.90018 -89.37355 36159 ft 368 kts 294°
2026-05-04 05:26 28.92053 -89.42715 36161 ft 368 kts 294°
2026-05-04 05:26 28.94071 -89.48039 36160 ft 368 kts 294°
2026-05-04 05:28 29.02217 -89.69598 36169 ft 378 kts 294°
2026-05-04 05:29 29.04312 -89.75164 36156 ft 383 kts 294°
2026-05-04 05:29 29.06076 -89.79859 36158 ft 384 kts 294°
2026-05-04 05:31 29.14474 -90.02283 36156 ft 382 kts 293°
2026-05-04 05:32 29.16559 -90.07878 36157 ft 381 kts 292°
2026-05-04 05:33 29.18357 -90.16739 36160 ft 383 kts 281°
2026-05-04 05:33 29.19106 -90.22774 36157 ft 383 kts 281°
2026-05-04 05:34 29.19857 -90.28759 36167 ft 382 kts 281°
2026-05-04 05:34 29.20619 -90.34783 36157 ft 382 kts 281°
2026-05-04 05:35 29.21382 -90.40806 36148 ft 382 kts 281°
2026-05-04 05:35 29.22142 -90.46820 36160 ft 382 kts 281°
2026-05-04 05:36 29.22899 -90.52834 36162 ft 381 kts 281°
2026-05-04 05:36 29.23653 -90.58850 36162 ft 382 kts 281°
2026-05-04 05:37 29.24405 -90.64867 36156 ft 382 kts 281°
2026-05-04 05:37 29.25154 -90.70885 36162 ft 382 kts 281°
2026-05-04 05:38 29.26268 -90.79882 36158 ft 382 kts 281°
2026-05-04 05:38 29.27010 -90.85902 36160 ft 381 kts 281°
2026-05-04 05:39 29.28115 -90.94914 36155 ft 381 kts 281°
2026-05-04 05:40 29.29215 -91.03923 36157 ft 381 kts 281°
2026-05-04 05:40 29.29941 -91.09905 36160 ft 381 kts 281°
2026-05-04 05:41 29.30668 -91.15915 36142 ft 380 kts 281°
2026-05-04 05:41 29.31392 -91.21918 36154 ft 380 kts 281°
2026-05-04 05:42 29.32111 -91.27921 36157 ft 380 kts 281°
2026-05-04 05:42 29.32827 -91.33919 36158 ft 380 kts 281°
2026-05-04 05:43 29.33541 -91.39930 36160 ft 380 kts 281°
2026-05-04 05:45 29.36365 -91.63929 36161 ft 380 kts 281°
2026-05-04 05:47 29.39150 -91.87966 36147 ft 380 kts 281°
2026-05-04 05:47 29.39834 -91.93934 36136 ft 380 kts 281°
2026-05-04 05:48 29.40521 -91.99944 36143 ft 380 kts 281°
2026-05-04 05:48 29.41206 -92.05965 36144 ft 381 kts 281°
2026-05-04 05:49 29.41888 -92.11988 36147 ft 381 kts 281°
2026-05-04 05:49 29.42569 -92.18020 36148 ft 381 kts 281°
2026-05-04 05:51 29.45267 -92.42178 36149 ft 382 kts 281°
2026-05-04 05:52 29.45823 -92.48218 36146 ft 384 kts 277°
2026-05-04 05:52 29.46108 -92.54361 36144 ft 385 kts 277°
2026-05-04 05:54 29.47205 -92.78877 36147 ft 385 kts 277°
2026-05-04 05:55 29.47482 -92.85019 36147 ft 385 kts 277°
2026-05-04 05:55 29.47756 -92.91154 36149 ft 385 kts 277°
2026-05-04 05:56 29.48028 -92.97305 36147 ft 385 kts 277°
2026-05-04 05:56 29.48297 -93.03441 36147 ft 385 kts 277°
2026-05-04 05:57 29.48560 -93.09577 36138 ft 385 kts 277°
2026-05-04 05:57 29.48806 -93.15681 36144 ft 385 kts 277°
2026-05-04 05:58 29.49049 -93.21824 36141 ft 385 kts 277°
2026-05-04 05:58 29.49291 -93.27979 36141 ft 385 kts 277°
2026-05-04 05:59 29.49530 -93.34126 36141 ft 386 kts 277°
2026-05-04 05:59 29.49648 -93.37197 35976 ft 387 kts 277°
2026-05-04 05:59 29.49766 -93.40273 35448 ft 383 kts 276°
2026-05-04 06:00 29.49883 -93.43332 34752 ft 383 kts 276°
2026-05-04 06:00 29.49999 -93.46389 34072 ft 384 kts 276°
2026-05-04 06:00 29.50115 -93.49455 33277 ft 386 kts 276°
2026-05-04 06:00 29.50231 -93.52539 32508 ft 387 kts 276°
2026-05-04 06:01 29.50345 -93.55626 31743 ft 387 kts 276°
2026-05-04 06:01 29.50460 -93.58721 30973 ft 388 kts 276°
2026-05-04 06:03 29.51285 -93.81695 25389 ft 405 kts 274°
2026-05-04 06:03 29.51399 -93.84931 25222 ft 405 kts 274°
2026-05-04 06:05 29.52109 -94.05501 22856 ft 352 kts 274°
2026-05-04 06:05 29.52300 -94.11077 21921 ft 347 kts 274°
2026-05-04 06:05 29.52393 -94.13837 21468 ft 344 kts 274°
2026-05-04 06:06 29.52484 -94.16545 21026 ft 344 kts 274°
2026-05-04 06:06 29.52576 -94.19300 20583 ft 344 kts 274°
2026-05-04 06:06 29.52667 -94.22049 20137 ft 343 kts 274°
2026-05-04 06:06 29.52757 -94.24783 19698 ft 342 kts 273°
2026-05-04 06:07 29.52846 -94.27507 19264 ft 341 kts 274°
2026-05-04 06:07 29.53188 -94.30150 18819 ft 339 kts 288°
2026-05-04 06:07 29.54109 -94.32627 18395 ft 337 kts 295°
2026-05-04 06:07 29.55159 -94.35033 17899 ft 336 kts 296°
2026-05-04 06:08 29.56217 -94.37415 17441 ft 334 kts 295°
2026-05-04 06:08 29.57260 -94.39782 16997 ft 331 kts 295°
2026-05-04 06:08 29.58287 -94.42141 16571 ft 329 kts 295°
2026-05-04 06:08 29.59300 -94.44492 16142 ft 328 kts 295°
2026-05-04 06:09 29.60316 -94.46861 15627 ft 332 kts 295°
2026-05-04 06:09 29.61335 -94.49243 15192 ft 331 kts 295°
2026-05-04 06:11 29.68357 -94.65637 12895 ft 323 kts 295°
2026-05-04 06:11 29.69349 -94.67956 12575 ft 322 kts 295°
2026-05-04 06:13 29.76177 -94.83985 10487 ft 309 kts 295°
2026-05-04 06:14 29.81420 -94.96341 9422 ft 267 kts 294°
2026-05-04 06:14 29.82230 -94.98256 9137 ft 265 kts 294°
2026-05-04 06:15 29.83038 -95.00166 8820 ft 265 kts 294°
2026-05-04 06:15 29.83845 -95.02075 8511 ft 265 kts 295°
2026-05-04 06:15 29.84379 -95.03339 8320 ft 264 kts 295°
2026-05-04 06:15 29.85182 -95.05238 8027 ft 264 kts 295°
2026-05-04 06:16 29.85985 -95.07138 7734 ft 263 kts 295°
2026-05-04 06:16 29.87045 -95.09648 7358 ft 263 kts 295°
2026-05-04 06:16 29.87732 -95.11598 7064 ft 262 kts 284°
2026-05-04 06:16 29.88013 -95.12950 6879 ft 261 kts 282°
2026-05-04 06:17 29.88395 -95.15022 6594 ft 261 kts 282°
2026-05-04 06:17 29.88776 -95.17050 6249 ft 263 kts 282°
2026-05-04 06:17 29.89362 -95.19021 6031 ft 262 kts 304°
2026-05-04 06:17 29.90638 -95.20497 6016 ft 261 kts 320°
2026-05-04 06:18 29.92075 -95.21786 6006 ft 262 kts 322°
2026-05-04 06:18 29.93532 -95.23060 6004 ft 263 kts 322°
2026-05-04 06:18 29.94993 -95.24338 5998 ft 263 kts 322°
2026-05-04 06:20 30.05109 -95.33325 6003 ft 264 kts 321°
2026-05-04 06:20 30.06563 -95.34624 6005 ft 265 kts 321°
2026-05-04 06:21 30.09295 -95.41740 5992 ft 248 kts 269°
2026-05-04 06:21 30.09281 -95.43670 6010 ft 232 kts 269°
2026-05-04 06:22 30.09274 -95.45462 5982 ft 215 kts 269°
2026-05-04 06:22 30.09269 -95.47119 5922 ft 200 kts 269°
2026-05-04 06:25 30.01026 -95.51021 2673 ft 162 kts 113°
2026-05-04 06:25 30.00824 -95.49778 2502 ft 154 kts 101°
2026-05-04 06:26 30.00733 -95.48536 2274 ft 155 kts 97°
2026-05-04 06:26 30.00714 -95.47308 2064 ft 151 kts 96°
2026-05-04 06:26 30.00713 -95.46121 1878 ft 147 kts 96°
2026-05-04 06:26 30.00713 -95.44931 1680 ft 149 kts 96°
2026-05-04 06:27 30.00712 -95.40148 881 ft 148 kts 94°
2026-05-04 06:28 30.00708 -95.38952 684 ft 150 kts 92°
2026-05-04 06:28 30.00711 -95.37758 431 ft 148 kts 92°
2026-05-04 06:28 30.00717 -95.36580 248 ft 146 kts 91°
2026-05-04 06:28 30.00715 -95.35429 113 ft 142 kts 91°
2026-05-04 06:29 30.00718 -95.34403 105 ft 108 kts 90°
2026-05-04 06:29 30.00716 -95.33760 105 ft 32 kts 91°
2026-05-04 06:29 30.00678 -95.33525 106 ft 18 kts 111°
2026-05-04 06:29 30.00653 -95.33461 105 ft 8 kts 117°
2026-05-04 06:30 30.00626 -95.33404 105 ft 8 kts 121°
2026-05-04 06:30 30.00598 -95.33350 106 ft 8 kts 121°
2026-05-04 06:30 30.00571 -95.33298 106 ft 7 kts 118°
2026-05-04 06:30 30.00549 -95.33245 105 ft 7 kts 110°
2026-05-04 06:31 30.00528 -95.33193 106 ft 7 kts 117°
2026-05-04 06:31 30.00505 -95.33144 105 ft 7 kts 119°
2026-05-04 06:31 30.00482 -95.33096 106 ft 7 kts 119°
2026-05-04 06:31 30.00458 -95.33050 106 ft 7 kts 124°
2026-05-04 06:32 30.00430 -95.33009 106 ft 7 kts 130°
2026-05-04 06:33 30.00213 -95.32709 106 ft 12 kts 129°
2026-05-04 06:34 30.00158 -95.32633 106 ft 12 kts 130°
2026-05-04 06:34 30.00100 -95.32561 106 ft 12 kts 144°
2026-05-04 06:34 30.00020 -95.32540 106 ft 12 kts 179°
2026-05-04 06:34 29.99938 -95.32540 106 ft 12 kts 180°
2026-05-04 06:35 29.99859 -95.32539 106 ft 11 kts 180°
2026-05-04 06:36 29.99100 -95.32570 106 ft 13 kts 240°
2026-05-04 06:37 29.99089 -95.32671 106 ft 13 kts 272°
2026-05-04 06:37 29.99090 -95.32771 106 ft 12 kts 270°
2026-05-04 06:37 29.99090 -95.32864 106 ft 12 kts 271°
2026-05-04 06:37 29.99091 -95.32958 106 ft 12 kts 270°
2026-05-04 06:38 29.99092 -95.33050 106 ft 11 kts 270°
2026-05-04 06:38 29.99091 -95.33140 106 ft 12 kts 270°
2026-05-04 06:40 29.99089 -95.33791 106 ft 11 kts 269°
2026-05-04 06:40 29.99088 -95.33874 106 ft 10 kts 269°
2026-05-04 06:40 29.99087 -95.33955 106 ft 10 kts 269°
2026-05-04 06:40 29.99086 -95.34034 106 ft 10 kts 269°
2026-05-04 06:41 29.99085 -95.34110 106 ft 9 kts 269°
2026-05-04 06:41 29.99086 -95.34185 106 ft 9 kts 272°
2026-05-04 06:41 29.99086 -95.34258 106 ft 9 kts 270°
2026-05-04 06:41 29.99070 -95.34323 106 ft 9 kts 225°
2026-05-04 06:42 29.99013 -95.34338 106 ft 9 kts 172°
2026-05-04 06:42 29.98960 -95.34309 106 ft 8 kts 152°
2026-05-04 06:42 29.98907 -95.34288 106 ft 6 kts 171°
2026-05-04 06:44 29.98811 -95.34285 106 ft 0 kts 180°